owner,sensor,date,latitude,longitude,air_temperature,qcFlag 
LUMCON,ioos:station:LUMCON:101:1,2011-08-03T15:00:00Z,29.2533,-90.6633,7.2,1111122 
LUMCON,ioos:station:LUMCON:101:1,2011-08-04T16:00:00Z,29.2533,-90.6633,31.7,1111122 
LUMCON,ioos:station:LUMCON:101:1,2011-08-04T17:00:00Z,29.2533,-90.6633,32.4,1111122 
LUMCON,ioos:station:LUMCON:101:1,2011-08-04T18:00:00Z,29.2533,-90.6633,32.9,1111122 
LUMCON,ioos:station:LUMCON:101:1,2011-08-04T20:00:00Z,29.2533,-90.6633,32.9,1111122 
LUMCON,ioos:station:LUMCON:101:1,2011-08-04T22:00:00Z,29.2533,-90.6633,34.3,1111122 
LUMCON,ioos:station:LUMCON:101:1,2011-08-04T23:00:00Z,29.2533,-90.6633,33.9,1111122 
LUMCON,ioos:station:LUMCON:101:1,2011-08-05T00:00:00Z,29.2533,-90.6633,32.6,1111122 
LUMCON,ioos:station:LUMCON:101:1,2011-08-05T01:00:00Z,29.2533,-90.6633,31.5,1111122 
LUMCON,ioos:station:LUMCON:101:1,2011-08-05T02:00:00Z,29.2533,-90.6633,30.9,1111122 
LUMCON,ioos:station:LUMCON:101:1,2011-08-05T03:00:00Z,29.2533,-90.6633,30.7,1111122 
LUMCON,ioos:station:LUMCON:101:1,2011-08-05T04:00:00Z,29.2533,-90.6633,30.4,1111122 
LUMCON,ioos:station:LUMCON:101:1,2011-08-05T05:00:00Z,29.2533,-90.6633,30.5,1111122 
LUMCON,ioos:station:LUMCON:101:1,2011-08-05T06:00:00Z,29.2533,-90.6633,30.2,1111122 
LUMCON,ioos:station:LUMCON:101:1,2011-08-05T07:00:00Z,29.2533,-90.6633,30.0,1111122 
LUMCON,ioos:station:LUMCON:101:1,2011-08-05T08:00:00Z,29.2533,-90.6633,29.9,1111122 
LUMCON,ioos:station:LUMCON:101:1,2011-08-05T09:00:00Z,29.2533,-90.6633,29.7,1111122 
LUMCON,ioos:station:LUMCON:101:1,2011-08-05T10:00:00Z,29.2533,-90.6633,29.7,1111122 
LUMCON,ioos:station:LUMCON:101:1,2011-08-05T11:00:00Z,29.2533,-90.6633,29.3,1111122 
LUMCON,ioos:station:LUMCON:101:1,2011-08-05T12:00:00Z,29.2533,-90.6633,29.3,1111122 
LUMCON,ioos:station:LUMCON:101:1,2011-08-05T13:00:00Z,29.2533,-90.6633,29.9,1111122 
LUMCON,ioos:station:LUMCON:101:1,2011-08-05T14:00:00Z,29.2533,-90.6633,29.8,11111222 
LUMCON,ioos:station:LUMCON:101:1,2011-08-05T15:00:00Z,29.2533,-90.6633,30.8,11111222 
LUMCON,ioos:station:LUMCON:101:1,2011-08-05T16:00:00Z,29.2533,-90.6633,31.2,11111222 
LUMCON,ioos:station:LUMCON:101:1,2011-08-05T17:00:00Z,29.2533,-90.6633,31.9,11111222 
LUMCON,ioos:station:LUMCON:101:1,2011-08-05T18:00:00Z,29.2533,-90.6633,32.9,1111122 
LUMCON,ioos:station:LUMCON:101:1,2011-08-05T19:00:00Z,29.2533,-90.6633,32.1,1111122 
LUMCON,ioos:station:LUMCON:101:1,2011-08-05T21:00:00Z,29.2533,-90.6633,28.1,1111122 
LUMCON,ioos:station:LUMCON:101:1,2011-08-05T22:00:00Z,29.2533,-90.6633,28.2,1111122 
LUMCON,ioos:station:LUMCON:101:1,2011-08-05T23:00:00Z,29.2533,-90.6633,28.7,1111122 
LUMCON,ioos:station:LUMCON:101:1,2011-08-06T00:00:00Z,29.2533,-90.6633,29.1,1111122 
LUMCON,ioos:station:LUMCON:101:1,2011-08-06T01:00:00Z,29.2533,-90.6633,29.0,1111122 
LUMCON,ioos:station:LUMCON:101:1,2011-08-06T02:00:00Z,29.2533,-90.6633,29.3,1111122 
LUMCON,ioos:station:LUMCON:101:1,2011-08-06T03:00:00Z,29.2533,-90.6633,28.5,1111122 
LUMCON,ioos:station:LUMCON:101:1,2011-08-06T04:00:00Z,29.2533,-90.6633,28.5,1111122 
LUMCON,ioos:station:LUMCON:101:1,2011-08-06T05:00:00Z,29.2533,-90.6633,28.8,1111122 
LUMCON,ioos:station:LUMCON:101:1,2011-08-06T06:00:00Z,29.2533,-90.6633,28.9,1111122 
LUMCON,ioos:station:LUMCON:101:1,2011-08-06T10:00:00Z,29.2533,-90.6633,29.0,1111122 
LUMCON,ioos:station:LUMCON:101:1,2011-08-06T11:00:00Z,29.2533,-90.6633,28.8,1111122 
LUMCON,ioos:station:LUMCON:101:1,2011-08-06T12:00:00Z,29.2533,-90.6633,29.0,1111122 
LUMCON,ioos:station:LUMCON:101:1,2011-08-06T13:00:00Z,29.2533,-90.6633,30.7,1111122 
LUMCON,ioos:station:LUMCON:101:1,2011-08-06T14:00:00Z,29.2533,-90.6633,30.5,1111122 
LUMCON,ioos:station:LUMCON:101:1,2011-08-06T15:00:00Z,29.2533,-90.6633,31.1,1111122 
LUMCON,ioos:station:LUMCON:101:1,2011-08-06T17:00:00Z,29.2533,-90.6633,31.7,1111122 
LUMCON,ioos:station:LUMCON:101:1,2011-08-07T00:00:00Z,29.2533,-90.6633,32.5,1111122 
LUMCON,ioos:station:LUMCON:101:1,2011-08-07T01:00:00Z,29.2533,-90.6633,31.4,1111122 
LUMCON,ioos:station:LUMCON:101:1,2011-08-07T02:00:00Z,29.2533,-90.6633,31.2,1111122 
LUMCON,ioos:station:LUMCON:101:1,2011-08-07T03:00:00Z,29.2533,-90.6633,31.1,1111122 
LUMCON,ioos:station:LUMCON:101:1,2011-08-07T04:00:00Z,29.2533,-90.6633,30.9,1111122 
LUMCON,ioos:station:LUMCON:101:1,2011-08-07T05:00:00Z,29.2533,-90.6633,30.8,1111122 
LUMCON,ioos:station:LUMCON:101:1,2011-08-07T06:00:00Z,29.2533,-90.6633,30.6,1111122 
LUMCON,ioos:station:LUMCON:101:1,2011-08-07T10:00:00Z,29.2533,-90.6633,29.8,1111122 
LUMCON,ioos:station:LUMCON:101:1,2011-08-07T12:00:00Z,29.2533,-90.6633,29.7,1111122 
LUMCON,ioos:station:LUMCON:101:1,2011-08-07T14:00:00Z,29.2533,-90.6633,31.2,1111122 
LUMCON,ioos:station:LUMCON:101:1,2011-08-08T06:00:00Z,29.2533,-90.6633,30.4,1111122 
LUMCON,ioos:station:LUMCON:101:1,2011-08-08T07:00:00Z,29.2533,-90.6633,30.4,1111122 
LUMCON,ioos:station:LUMCON:101:1,2011-08-08T08:00:00Z,29.2533,-90.6633,30.4,1111122 
LUMCON,ioos:station:LUMCON:101:1,2011-08-08T09:00:00Z,29.2533,-90.6633,30.3,1111122 
LUMCON,ioos:station:LUMCON:101:1,2011-08-08T10:00:00Z,29.2533,-90.6633,30.0,1111122 
LUMCON,ioos:station:LUMCON:101:1,2011-08-08T16:00:00Z,29.2533,-90.6633,27.3,1111122 
LUMCON,ioos:station:LUMCON:101:1,2011-08-08T17:00:00Z,29.2533,-90.6633,29.5,1111122 
LUMCON,ioos:station:LUMCON:101:1,2011-08-08T18:00:00Z,29.2533,-90.6633,31.5,1111122 
LUMCON,ioos:station:LUMCON:101:1,2011-08-08T19:00:00Z,29.2533,-90.6633,31.2,1111122 
LUMCON,ioos:station:LUMCON:101:1,2011-08-08T20:00:00Z,29.2533,-90.6633,29.8,1111122 
LUMCON,ioos:station:LUMCON:101:1,2011-08-10T19:00:00Z,29.2533,-90.6633,33.2,1111122 
LUMCON,ioos:station:LUMCON:101:1,2011-08-10T20:00:00Z,29.2533,-90.6633,33.6,1111122 
LUMCON,ioos:station:LUMCON:101:1,2011-08-10T21:00:00Z,29.2533,-90.6633,33.4,1111122 
LUMCON,ioos:station:LUMCON:101:1,2011-08-10T22:00:00Z,29.2533,-90.6633,33.3,1111122 
LUMCON,ioos:station:LUMCON:101:1,2011-08-10T23:00:00Z,29.2533,-90.6633,32.7,1111122 
LUMCON,ioos:station:LUMCON:101:1,2011-08-11T01:00:00Z,29.2533,-90.6633,30.5,1111122 
LUMCON,ioos:station:LUMCON:101:1,2011-08-11T02:00:00Z,29.2533,-90.6633,30.1,1111122 
LUMCON,ioos:station:LUMCON:101:1,2011-08-11T03:00:00Z,29.2533,-90.6633,29.9,1111122 
LUMCON,ioos:station:LUMCON:101:1,2011-08-11T04:00:00Z,29.2533,-90.6633,29.9,1111122 
LUMCON,ioos:station:LUMCON:101:1,2011-08-11T05:00:00Z,29.2533,-90.6633,29.8,1111122 
LUMCON,ioos:station:LUMCON:101:1,2011-08-11T06:00:00Z,29.2533,-90.6633,29.6,1111122 
LUMCON,ioos:station:LUMCON:101:1,2011-08-11T07:00:00Z,29.2533,-90.6633,29.5,1111122 
LUMCON,ioos:station:LUMCON:101:1,2011-08-11T08:00:00Z,29.2533,-90.6633,29.5,1111122 
LUMCON,ioos:station:LUMCON:101:1,2011-08-11T09:00:00Z,29.2533,-90.6633,29.2,1111122 
LUMCON,ioos:station:LUMCON:101:1,2011-08-14T16:00:00Z,29.2533,-90.6633,22.2,1111122 
LUMCON,ioos:station:LUMCON:101:1,2011-08-15T21:00:00Z,29.2533,-90.6633,33.0,1111122 
LUMCON,ioos:station:LUMCON:101:1,2011-08-15T22:00:00Z,29.2533,-90.6633,32.3,1111122 
LUMCON,ioos:station:LUMCON:101:1,2011-08-15T23:00:00Z,29.2533,-90.6633,33.1,1111122 
LUMCON,ioos:station:LUMCON:101:1,2011-08-16T00:00:00Z,29.2533,-90.6633,33.3,1111122 
LUMCON,ioos:station:LUMCON:101:1,2011-08-16T01:00:00Z,29.2533,-90.6633,31.8,11111222 
LUMCON,ioos:station:LUMCON:101:1,2011-08-16T21:00:00Z,29.2533,-90.6633,34.1,11111222 
LUMCON,ioos:station:LUMCON:101:1,2011-08-16T22:00:00Z,29.2533,-90.6633,34.4,11111222 
LUMCON,ioos:station:LUMCON:101:1,2011-08-16T23:00:00Z,29.2533,-90.6633,34.6,11111222 
LUMCON,ioos:station:LUMCON:101:1,2011-08-17T00:00:00Z,29.2533,-90.6633,33.4,11111222 
LUMCON,ioos:station:LUMCON:101:1,2011-08-17T01:00:00Z,29.2533,-90.6633,31.6,11111222 
LUMCON,ioos:station:LUMCON:101:1,2011-08-17T02:00:00Z,29.2533,-90.6633,31.0,11111222 
LUMCON,ioos:station:LUMCON:101:1,2011-08-17T03:00:00Z,29.2533,-90.6633,30.5,11111222 
LUMCON,ioos:station:LUMCON:101:1,2011-08-17T04:00:00Z,29.2533,-90.6633,30.0,11111222 
LUMCON,ioos:station:LUMCON:101:1,2011-08-17T05:00:00Z,29.2533,-90.6633,30.5,11111222 
LUMCON,ioos:station:LUMCON:101:1,2011-08-17T06:00:00Z,29.2533,-90.6633,30.7,11111222 
LUMCON,ioos:station:LUMCON:101:1,2011-08-17T07:00:00Z,29.2533,-90.6633,30.2,11111222 
LUMCON,ioos:station:LUMCON:101:1,2011-08-17T08:00:00Z,29.2533,-90.6633,29.8,11111222 
LUMCON,ioos:station:LUMCON:101:1,2011-08-17T09:00:00Z,29.2533,-90.6633,29.6,11111222 
LUMCON,ioos:station:LUMCON:101:1,2011-08-17T10:00:00Z,29.2533,-90.6633,29.4,11111222 
LUMCON,ioos:station:LUMCON:101:1,2011-08-17T11:00:00Z,29.2533,-90.6633,29.3,11111222 
LUMCON,ioos:station:LUMCON:101:1,2011-08-17T12:00:00Z,29.2533,-90.6633,29.1,11111222 
LUMCON,ioos:station:LUMCON:101:1,2011-08-17T13:00:00Z,29.2533,-90.6633,29.8,11111222 
LUMCON,ioos:station:LUMCON:101:1,2011-08-17T14:00:00Z,29.2533,-90.6633,30.3,11111222 
LUMCON,ioos:station:LUMCON:101:1,2011-08-17T15:00:00Z,29.2533,-90.6633,31.1,11111222 
LUMCON,ioos:station:LUMCON:101:1,2011-08-17T16:00:00Z,29.2533,-90.6633,31.8,11111222 
LUMCON,ioos:station:LUMCON:101:1,2011-08-17T17:00:00Z,29.2533,-90.6633,32.2,11111222 
LUMCON,ioos:station:LUMCON:101:1,2011-08-17T18:00:00Z,29.2533,-90.6633,33.0,11111222 
LUMCON,ioos:station:LUMCON:101:1,2011-08-17T19:00:00Z,29.2533,-90.6633,33.8,11111222 
LUMCON,ioos:station:LUMCON:101:1,2011-08-17T20:00:00Z,29.2533,-90.6633,33.9,11111222 
LUMCON,ioos:station:LUMCON:101:1,2011-08-17T21:00:00Z,29.2533,-90.6633,34.2,11111222 
LUMCON,ioos:station:LUMCON:101:1,2011-08-17T22:00:00Z,29.2533,-90.6633,33.9,11111222 
LUMCON,ioos:station:LUMCON:101:1,2011-08-17T23:00:00Z,29.2533,-90.6633,34.2,11111222 
LUMCON,ioos:station:LUMCON:101:1,2011-08-18T01:00:00Z,29.2533,-90.6633,31.5,11111222 
LUMCON,ioos:station:LUMCON:101:1,2011-08-18T02:00:00Z,29.2533,-90.6633,31.5,11111222 
LUMCON,ioos:station:LUMCON:101:1,2011-08-18T03:00:00Z,29.2533,-90.6633,31.3,11111222 
LUMCON,ioos:station:LUMCON:101:1,2011-08-18T04:00:00Z,29.2533,-90.6633,30.1,11111222 
LUMCON,ioos:station:LUMCON:101:1,2011-08-18T05:00:00Z,29.2533,-90.6633,30.2,11111222 
LUMCON,ioos:station:LUMCON:101:1,2011-08-18T06:00:00Z,29.2533,-90.6633,30.0,11111222 
LUMCON,ioos:station:LUMCON:101:1,2011-08-18T07:00:00Z,29.2533,-90.6633,30.1,11111222 
LUMCON,ioos:station:LUMCON:101:1,2011-08-18T08:00:00Z,29.2533,-90.6633,30.2,11111222 
LUMCON,ioos:station:LUMCON:101:1,2011-08-18T09:00:00Z,29.2533,-90.6633,30.1,11111222 
LUMCON,ioos:station:LUMCON:101:1,2011-08-18T10:00:00Z,29.2533,-90.6633,29.8,11111222 
LUMCON,ioos:station:LUMCON:101:1,2011-08-18T11:00:00Z,29.2533,-90.6633,28.1,11111222 
LUMCON,ioos:station:LUMCON:101:1,2011-08-18T12:00:00Z,29.2533,-90.6633,28.7,11111222 
LUMCON,ioos:station:LUMCON:101:1,2011-08-18T13:00:00Z,29.2533,-90.6633,30.1,11111222 
LUMCON,ioos:station:LUMCON:101:1,2011-08-18T14:00:00Z,29.2533,-90.6633,31.6,11111222 
LUMCON,ioos:station:LUMCON:101:1,2011-08-18T15:00:00Z,29.2533,-90.6633,31.6,11111222 
LUMCON,ioos:station:LUMCON:101:1,2011-08-18T16:00:00Z,29.2533,-90.6633,32.2,11111222 
LUMCON,ioos:station:LUMCON:101:1,2011-08-18T17:00:00Z,29.2533,-90.6633,32.7,11111222 
LUMCON,ioos:station:LUMCON:101:1,2011-08-18T18:00:00Z,29.2533,-90.6633,33.6,11111222 
LUMCON,ioos:station:LUMCON:101:1,2011-08-18T19:00:00Z,29.2533,-90.6633,34.2,11111222 
LUMCON,ioos:station:LUMCON:101:1,2011-08-18T21:00:00Z,29.2533,-90.6633,32.9,11111222 
LUMCON,ioos:station:LUMCON:101:1,2011-08-18T22:00:00Z,29.2533,-90.6633,30.4,11111222 
LUMCON,ioos:station:LUMCON:101:1,2011-08-18T23:00:00Z,29.2533,-90.6633,29.7,11111222 
LUMCON,ioos:station:LUMCON:101:1,2011-08-19T00:00:00Z,29.2533,-90.6633,26.8,11111222 
LUMCON,ioos:station:LUMCON:101:1,2011-08-19T01:00:00Z,29.2533,-90.6633,26.5,11111222 
LUMCON,ioos:station:LUMCON:101:1,2011-08-19T02:00:00Z,29.2533,-90.6633,28.5,11111222 
LUMCON,ioos:station:LUMCON:101:1,2011-08-19T03:00:00Z,29.2533,-90.6633,29.5,11111222 
LUMCON,ioos:station:LUMCON:101:1,2011-08-20T10:00:00Z,29.2533,-90.6633,29.3,11111222 
LUMCON,ioos:station:LUMCON:101:1,2011-08-20T11:00:00Z,29.2533,-90.6633,29.3,11111222 
LUMCON,ioos:station:LUMCON:101:1,2011-08-20T12:00:00Z,29.2533,-90.6633,29.1,11111222 
LUMCON,ioos:station:LUMCON:101:1,2011-08-20T13:00:00Z,29.2533,-90.6633,30.3,11111222 
LUMCON,ioos:station:LUMCON:101:1,2011-08-20T14:00:00Z,29.2533,-90.6633,31.8,11111222 
LUMCON,ioos:station:LUMCON:101:1,2011-08-20T15:00:00Z,29.2533,-90.6633,31.3,11111222 
LUMCON,ioos:station:LUMCON:101:1,2011-08-20T16:00:00Z,29.2533,-90.6633,31.4,11111222 
LUMCON,ioos:station:LUMCON:101:1,2011-08-20T17:00:00Z,29.2533,-90.6633,31.4,11111222 
LUMCON,ioos:station:LUMCON:101:1,2011-08-20T18:00:00Z,29.2533,-90.6633,31.6,11111222 
LUMCON,ioos:station:LUMCON:101:1,2011-08-20T19:00:00Z,29.2533,-90.6633,31.9,11111222 
LUMCON,ioos:station:LUMCON:101:1,2011-08-20T20:00:00Z,29.2533,-90.6633,32.0,11111222 
LUMCON,ioos:station:LUMCON:101:1,2011-08-20T21:00:00Z,29.2533,-90.6633,32.2,11111222 
LUMCON,ioos:station:LUMCON:101:1,2011-08-20T22:00:00Z,29.2533,-90.6633,32.5,11111222 
LUMCON,ioos:station:LUMCON:101:1,2011-08-20T23:00:00Z,29.2533,-90.6633,32.5,11111222 
LUMCON,ioos:station:LUMCON:101:1,2011-08-21T00:00:00Z,29.2533,-90.6633,32.0,11111222 
LUMCON,ioos:station:LUMCON:101:1,2011-08-21T01:00:00Z,29.2533,-90.6633,31.1,11111222 
LUMCON,ioos:station:LUMCON:101:1,2011-08-21T03:00:00Z,29.2533,-90.6633,30.7,11111222 
LUMCON,ioos:station:LUMCON:101:1,2011-08-21T04:00:00Z,29.2533,-90.6633,30.5,11111222 
LUMCON,ioos:station:LUMCON:101:1,2011-08-21T05:00:00Z,29.2533,-90.6633,30.4,11111222 
LUMCON,ioos:station:LUMCON:101:1,2011-08-21T06:00:00Z,29.2533,-90.6633,30.4,11111222 
LUMCON,ioos:station:LUMCON:101:1,2011-08-21T07:00:00Z,29.2533,-90.6633,30.4,11111222 
LUMCON,ioos:station:LUMCON:101:1,2011-08-21T08:00:00Z,29.2533,-90.6633,30.5,11111222 
LUMCON,ioos:station:LUMCON:101:1,2011-08-21T09:00:00Z,29.2533,-90.6633,30.3,11111222 
LUMCON,ioos:station:LUMCON:101:1,2011-08-21T10:00:00Z,29.2533,-90.6633,30.3,11111222 
LUMCON,ioos:station:LUMCON:101:1,2011-08-21T11:00:00Z,29.2533,-90.6633,29.9,11111222 
LUMCON,ioos:station:LUMCON:101:1,2011-08-21T12:00:00Z,29.2533,-90.6633,29.3,11111222 
LUMCON,ioos:station:LUMCON:101:1,2011-08-21T13:00:00Z,29.2533,-90.6633,29.3,11111222 
LUMCON,ioos:station:LUMCON:101:1,2011-08-21T14:00:00Z,29.2533,-90.6633,30.8,11111222 
LUMCON,ioos:station:LUMCON:101:1,2011-08-21T15:00:00Z,29.2533,-90.6633,31.1,11111222 
LUMCON,ioos:station:LUMCON:101:1,2011-08-21T16:00:00Z,29.2533,-90.6633,32.4,11111222 
LUMCON,ioos:station:LUMCON:101:1,2011-08-21T17:00:00Z,29.2533,-90.6633,32.3,11111222 
LUMCON,ioos:station:LUMCON:101:1,2011-08-21T18:00:00Z,29.2533,-90.6633,32.9,11111222 
LUMCON,ioos:station:LUMCON:101:1,2011-08-21T19:00:00Z,29.2533,-90.6633,32.5,11111222 
LUMCON,ioos:station:LUMCON:101:1,2011-08-21T20:00:00Z,29.2533,-90.6633,32.5,11111222 
LUMCON,ioos:station:LUMCON:101:1,2011-08-21T21:00:00Z,29.2533,-90.6633,32.0,11111222 
LUMCON,ioos:station:LUMCON:101:1,2011-08-21T22:00:00Z,29.2533,-90.6633,32.5,11111222 
LUMCON,ioos:station:LUMCON:101:1,2011-08-21T23:00:00Z,29.2533,-90.6633,31.9,11111222 
LUMCON,ioos:station:LUMCON:101:1,2011-08-22T00:00:00Z,29.2533,-90.6633,31.7,11111222 
LUMCON,ioos:station:LUMCON:101:1,2011-08-22T01:00:00Z,29.2533,-90.6633,31.3,11111222 
LUMCON,ioos:station:LUMCON:101:1,2011-08-22T02:00:00Z,29.2533,-90.6633,31.2,11111222 
LUMCON,ioos:station:LUMCON:101:1,2011-08-22T03:00:00Z,29.2533,-90.6633,31.0,11111222 
LUMCON,ioos:station:LUMCON:101:1,2011-08-22T04:00:00Z,29.2533,-90.6633,30.8,11111222 
LUMCON,ioos:station:LUMCON:101:1,2011-08-22T05:00:00Z,29.2533,-90.6633,30.6,11111222 
LUMCON,ioos:station:LUMCON:101:1,2011-08-22T06:00:00Z,29.2533,-90.6633,30.4,11111222 
LUMCON,ioos:station:LUMCON:101:1,2011-08-22T07:00:00Z,29.2533,-90.6633,30.4,11111222 
LUMCON,ioos:station:LUMCON:101:1,2011-08-22T08:00:00Z,29.2533,-90.6633,30.4,11111222 
LUMCON,ioos:station:LUMCON:101:1,2011-08-22T09:00:00Z,29.2533,-90.6633,30.3,11111222 
LUMCON,ioos:station:LUMCON:101:1,2011-08-22T10:00:00Z,29.2533,-90.6633,30.1,11111222 
LUMCON,ioos:station:LUMCON:101:1,2011-08-22T11:00:00Z,29.2533,-90.6633,29.6,11111222 
LUMCON,ioos:station:LUMCON:101:1,2011-08-22T12:00:00Z,29.2533,-90.6633,29.7,11111222 
LUMCON,ioos:station:LUMCON:101:1,2011-08-22T13:00:00Z,29.2533,-90.6633,30.5,11111222 
LUMCON,ioos:station:LUMCON:101:1,2011-08-22T14:00:00Z,29.2533,-90.6633,30.9,11111222 
LUMCON,ioos:station:LUMCON:101:1,2011-08-22T15:00:00Z,29.2533,-90.6633,31.9,11111222 
LUMCON,ioos:station:LUMCON:101:1,2011-08-22T16:00:00Z,29.2533,-90.6633,31.2,11111222 
LUMCON,ioos:station:LUMCON:101:1,2011-08-22T17:00:00Z,29.2533,-90.6633,32.1,11111222 
LUMCON,ioos:station:LUMCON:101:1,2011-08-22T18:00:00Z,29.2533,-90.6633,33.1,11111222 
LUMCON,ioos:station:LUMCON:101:1,2011-08-22T19:00:00Z,29.2533,-90.6633,33.1,11111222 
LUMCON,ioos:station:LUMCON:101:1,2011-08-22T20:00:00Z,29.2533,-90.6633,32.0,11111222 
LUMCON,ioos:station:LUMCON:101:1,2011-08-22T22:00:00Z,29.2533,-90.6633,29.2,11111222 
LUMCON,ioos:station:LUMCON:101:1,2011-08-22T23:00:00Z,29.2533,-90.6633,30.1,11111222 
LUMCON,ioos:station:LUMCON:101:1,2011-08-23T00:00:00Z,29.2533,-90.6633,29.7,11111222 
LUMCON,ioos:station:LUMCON:101:1,2011-08-23T01:00:00Z,29.2533,-90.6633,29.3,11111222 
LUMCON,ioos:station:LUMCON:101:1,2011-08-23T02:00:00Z,29.2533,-90.6633,29.1,11111222 
LUMCON,ioos:station:LUMCON:101:1,2011-08-23T03:00:00Z,29.2533,-90.6633,28.7,11111222 
LUMCON,ioos:station:LUMCON:101:1,2011-08-23T04:00:00Z,29.2533,-90.6633,28.7,11111222 
LUMCON,ioos:station:LUMCON:101:1,2011-08-23T05:00:00Z,29.2533,-90.6633,29.2,11111222 
LUMCON,ioos:station:LUMCON:101:1,2011-08-23T06:00:00Z,29.2533,-90.6633,28.9,11111222 
LUMCON,ioos:station:LUMCON:101:1,2011-08-23T07:00:00Z,29.2533,-90.6633,28.9,11111222 
LUMCON,ioos:station:LUMCON:101:1,2011-08-23T08:00:00Z,29.2533,-90.6633,29.1,11111222 
LUMCON,ioos:station:LUMCON:101:1,2011-08-23T09:00:00Z,29.2533,-90.6633,28.8,11111222 
LUMCON,ioos:station:LUMCON:101:1,2011-08-23T10:00:00Z,29.2533,-90.6633,28.7,11111222 
LUMCON,ioos:station:LUMCON:101:1,2011-08-23T11:00:00Z,29.2533,-90.6633,28.8,11111222 
LUMCON,ioos:station:LUMCON:101:1,2011-08-23T12:00:00Z,29.2533,-90.6633,28.8,11111222 
LUMCON,ioos:station:LUMCON:101:1,2011-08-23T13:00:00Z,29.2533,-90.6633,29.4,11111222 
LUMCON,ioos:station:LUMCON:101:1,2011-08-23T14:00:00Z,29.2533,-90.6633,30.2,11111222 
LUMCON,ioos:station:LUMCON:101:1,2011-08-23T15:00:00Z,29.2533,-90.6633,30.8,11111222 
LUMCON,ioos:station:LUMCON:101:1,2011-08-23T17:00:00Z,29.2533,-90.6633,32.3,11111222 
LUMCON,ioos:station:LUMCON:101:1,2011-08-23T18:00:00Z,29.2533,-90.6633,33.3,11111222 
LUMCON,ioos:station:LUMCON:101:1,2011-08-23T19:00:00Z,29.2533,-90.6633,32.9,11111222 
LUMCON,ioos:station:LUMCON:101:1,2011-08-23T20:00:00Z,29.2533,-90.6633,33.4,11111222 
LUMCON,ioos:station:LUMCON:101:1,2011-08-23T21:00:00Z,29.2533,-90.6633,33.5,11111222 
LUMCON,ioos:station:LUMCON:101:1,2011-08-23T22:00:00Z,29.2533,-90.6633,34.0,11111222 
LUMCON,ioos:station:LUMCON:101:1,2011-08-23T23:00:00Z,29.2533,-90.6633,32.5,11111222 
LUMCON,ioos:station:LUMCON:101:1,2011-08-24T01:00:00Z,29.2533,-90.6633,31.5,11111222 
LUMCON,ioos:station:LUMCON:101:1,2011-08-24T02:00:00Z,29.2533,-90.6633,30.0,11111222 
LUMCON,ioos:station:LUMCON:101:1,2011-08-24T03:00:00Z,29.2533,-90.6633,29.5,11111222 
LUMCON,ioos:station:LUMCON:101:1,2011-08-24T04:00:00Z,29.2533,-90.6633,28.7,11111222 
LUMCON,ioos:station:LUMCON:101:1,2011-08-24T05:00:00Z,29.2533,-90.6633,28.9,11111222 
LUMCON,ioos:station:LUMCON:101:1,2011-08-24T06:00:00Z,29.2533,-90.6633,28.7,11111222 
LUMCON,ioos:station:LUMCON:101:1,2011-08-24T07:00:00Z,29.2533,-90.6633,28.2,11111222 
LUMCON,ioos:station:LUMCON:101:1,2011-08-24T10:00:00Z,29.2533,-90.6633,28.8,11111222 
LUMCON,ioos:station:LUMCON:101:1,2011-08-24T11:00:00Z,29.2533,-90.6633,28.5,11111222 
LUMCON,ioos:station:LUMCON:101:1,2011-08-24T12:00:00Z,29.2533,-90.6633,28.3,11111222 
LUMCON,ioos:station:LUMCON:101:1,2011-08-24T13:00:00Z,29.2533,-90.6633,28.9,11111222 
LUMCON,ioos:station:LUMCON:101:1,2011-08-24T14:00:00Z,29.2533,-90.6633,30.7,11111222 
LUMCON,ioos:station:LUMCON:101:1,2011-08-24T15:00:00Z,29.2533,-90.6633,32.1,11111222 
LUMCON,ioos:station:LUMCON:101:1,2011-08-24T16:00:00Z,29.2533,-90.6633,32.7,11111222 
LUMCON,ioos:station:LUMCON:101:1,2011-08-24T17:00:00Z,29.2533,-90.6633,32.6,11111222 
LUMCON,ioos:station:LUMCON:101:1,2011-08-24T18:00:00Z,29.2533,-90.6633,32.0,11111222 
LUMCON,ioos:station:LUMCON:101:1,2011-08-24T19:00:00Z,29.2533,-90.6633,32.3,11111222 
LUMCON,ioos:station:LUMCON:101:1,2011-08-24T20:00:00Z,29.2533,-90.6633,33.1,11111222 
LUMCON,ioos:station:LUMCON:101:1,2011-08-24T21:00:00Z,29.2533,-90.6633,33.2,11111222 
LUMCON,ioos:station:LUMCON:101:1,2011-08-24T22:00:00Z,29.2533,-90.6633,33.4,11111222 
LUMCON,ioos:station:LUMCON:101:1,2011-08-24T23:00:00Z,29.2533,-90.6633,32.4,11111222 
LUMCON,ioos:station:LUMCON:101:1,2011-08-25T00:00:00Z,29.2533,-90.6633,30.1,11111222 
LUMCON,ioos:station:LUMCON:101:1,2011-08-25T01:00:00Z,29.2533,-90.6633,29.2,11111222 
LUMCON,ioos:station:LUMCON:101:1,2011-08-25T02:00:00Z,29.2533,-90.6633,29.2,11111222 
LUMCON,ioos:station:LUMCON:101:1,2011-08-25T03:00:00Z,29.2533,-90.6633,29.0,11111222 
LUMCON,ioos:station:LUMCON:101:1,2011-08-25T04:00:00Z,29.2533,-90.6633,28.4,11111222 
LUMCON,ioos:station:LUMCON:101:1,2011-08-25T05:00:00Z,29.2533,-90.6633,28.5,11111222 
LUMCON,ioos:station:LUMCON:101:1,2011-08-25T06:00:00Z,29.2533,-90.6633,29.0,11111222 
LUMCON,ioos:station:LUMCON:101:1,2011-08-25T07:00:00Z,29.2533,-90.6633,29.1,11111222 
LUMCON,ioos:station:LUMCON:101:1,2011-08-25T08:00:00Z,29.2533,-90.6633,29.2,11111222 
LUMCON,ioos:station:LUMCON:101:1,2011-08-25T09:00:00Z,29.2533,-90.6633,29.2,11111222 
LUMCON,ioos:station:LUMCON:101:1,2011-08-25T10:00:00Z,29.2533,-90.6633,29.2,11111222 
LUMCON,ioos:station:LUMCON:101:1,2011-08-25T11:00:00Z,29.2533,-90.6633,29.3,11111222 
LUMCON,ioos:station:LUMCON:101:1,2011-08-25T12:00:00Z,29.2533,-90.6633,29.4,11111222 
LUMCON,ioos:station:LUMCON:101:1,2011-08-25T13:00:00Z,29.2533,-90.6633,29.8,11111222 
LUMCON,ioos:station:LUMCON:101:1,2011-08-25T14:00:00Z,29.2533,-90.6633,29.9,11111222 
LUMCON,ioos:station:LUMCON:101:1,2011-08-25T15:00:00Z,29.2533,-90.6633,31.6,11111222 
LUMCON,ioos:station:LUMCON:101:1,2011-08-25T16:00:00Z,29.2533,-90.6633,32.6,11111222 
LUMCON,ioos:station:LUMCON:101:1,2011-08-25T17:00:00Z,29.2533,-90.6633,33.2,11111222 
LUMCON,ioos:station:LUMCON:101:1,2011-08-25T18:00:00Z,29.2533,-90.6633,33.2,11111222 
LUMCON,ioos:station:LUMCON:101:1,2011-08-25T19:00:00Z,29.2533,-90.6633,32.5,11111222 
LUMCON,ioos:station:LUMCON:101:1,2011-08-25T20:00:00Z,29.2533,-90.6633,28.0,11111222 
LUMCON,ioos:station:LUMCON:101:1,2011-08-25T21:00:00Z,29.2533,-90.6633,28.3,11111222 
LUMCON,ioos:station:LUMCON:101:1,2011-08-25T22:00:00Z,29.2533,-90.6633,28.1,11111222 
LUMCON,ioos:station:LUMCON:101:1,2011-08-25T23:00:00Z,29.2533,-90.6633,29.6,11111222 
LUMCON,ioos:station:LUMCON:101:1,2011-08-26T00:00:00Z,29.2533,-90.6633,29.6,11111222 
LUMCON,ioos:station:LUMCON:101:1,2011-08-26T02:00:00Z,29.2533,-90.6633,28.6,11111222 
LUMCON,ioos:station:LUMCON:101:1,2011-08-26T03:00:00Z,29.2533,-90.6633,28.2,11111222 
LUMCON,ioos:station:LUMCON:101:1,2011-08-26T04:00:00Z,29.2533,-90.6633,28.2,11111222 
LUMCON,ioos:station:LUMCON:101:1,2011-08-26T05:00:00Z,29.2533,-90.6633,28.2,11111222 
LUMCON,ioos:station:LUMCON:101:1,2011-08-26T06:00:00Z,29.2533,-90.6633,28.1,11111222 
LUMCON,ioos:station:LUMCON:101:1,2011-08-26T07:00:00Z,29.2533,-90.6633,27.9,11111222 
LUMCON,ioos:station:LUMCON:101:1,2011-08-26T08:00:00Z,29.2533,-90.6633,27.6,11111222 
LUMCON,ioos:station:LUMCON:101:1,2011-08-26T09:00:00Z,29.2533,-90.6633,27.6,11111222 
LUMCON,ioos:station:LUMCON:101:1,2011-08-26T10:00:00Z,29.2533,-90.6633,27.5,11111222 
LUMCON,ioos:station:LUMCON:101:1,2011-08-26T11:00:00Z,29.2533,-90.6633,27.5,11111222 
LUMCON,ioos:station:LUMCON:101:1,2011-08-26T12:00:00Z,29.2533,-90.6633,27.6,11111222 
LUMCON,ioos:station:LUMCON:101:1,2011-08-26T13:00:00Z,29.2533,-90.6633,28.5,11111222 
LUMCON,ioos:station:LUMCON:101:1,2011-08-26T14:00:00Z,29.2533,-90.6633,29.7,11111222 